Tracking 18987 objects as of 25-Feb-2018
HD Live streaming from Space Station
objects crossing your sky now

NOAA 16 DEB

Track NOAA 16 DEB now!
10-day predictions


NORAD ID: 41206
Int'l Code: 2000-055DK
Perigee: 849.9 km
Apogee: 872.5 km
Inclination: 98.8 °
Period: 102.0 minutes
Semi major axis: 7232 km
RCS: Unknown
Launch date: September 21, 2000
Source: United States (US)
Launch site: AIR FORCE WESTERN TEST RANGE (AFWTR)

Note: This is SATELLITE DEBRIS
aabbcc
Your satellite tracking list
Your tracking list is empty




NASA's NSSDC Master Catalog

Two Line Element Set (TLE):
1 41206U 00055DK  18055.40516192 +.00000569 +00000-0 +33723-3 0  9991
2 41206 098.8086 123.9579 0015587 196.9950 163.0701 14.11554583113162
Source of the keplerian elements: AFSPC